www.pogodaiklimat.ru

Погода и климат >> Архив погоды >> Россия >> Красноярский край >> Тюхтет


ПОГОДА в Тюхтете

  • Прогноз погоды в Тюхтете
  • Монитор погоды в Тюхтете

АРХИВ ПОГОДЫ в Тюхтете

Время (UTC), дата Ветер
(напр.,м/с)
 
Видим.   Явления Облачность Т
(С)
Тd
(С)
f
(%)
Тe
(С)
Тes
(С)
Комфортность P
(гПа)
Po
(гПа)
Тmin
(С)
Tmax
(С)
R
(мм)
R24
(мм)
S
(см)
06 19.08 Ю 2 1000 м дым 9/0
[Cs]
+22.1 +12.9 56 +25 +34 комфорт 1014.8 991.2
09 19.08 Ю 2 1000 м дым 9/0
[Cs]
+22.6 +13.3 56 +26 +31 жарко 1014.1 990.6
12 19.08 С 2
{15}
1000 м слаб. ливневой дождь, в посл. час гроза 10/10 600 м
[Cb cap]
+15.2 +15.0 99 +15 +15 1015.7 991.5 +23.2 4
15 19.08 ЮВ 1 1000 м слаб. ливневой дождь 10/10 600 м
[Cb cap]
+14.5 +14.4 99 +15 +15 1015.9 991.6
18 19.08 ЮВ 1 1000 м дым {ливн. осадки} 10/10 600 м
[Cb cap]
+14.2 +14.0 99 +14 +14 1015.5 991.2
21 19.08 ЮВ 1 1000 м дым 10/10 600 м
[Cb cap]
+14.0 +13.8 99 +14 +14 1014.8 990.5
00 20.08 ЮВ 1 1000 м в посл. час ливневой дождь 10/10 600 м
[Cb cap]
+14.1 +14.0 99 +14 +14 1014.3 990.0 +13.9 3
03 20.08 Ю 1 1000 м дым 9/8 600 м
[Cb cap Ci fib]
+17.1 +15.9 93 +18 +19 1013.6 989.6
06 20.08 штиль 0 1000 м дым 9/8 600 м
[Cb cap Ci fib]
+18.0 +16.0 88 +18 +21 1013.0 989.1
09 20.08 З 2 1000 м слаб. ливневой дождь 10/10 600 м
[Cb cap]
+16.4 +16.2 99 +16 +16 1012.8 988.7
12 20.08 З 3 1000 м в посл. час ливневой дождь 10/10 600 м
[Cb cap]
+14.5 +14.4 99 +13 +13 1013.5 989.3 +18.2 23
15 20.08 З 2 н/о слаб. ливневой дождь 10/10 600 м
[Cb cap]
+13.6 +13.5 99 +13 +13 1014.3 990.0
18 20.08 Ю 1 н/о в посл. час ливневой дождь 9/8 600 м
[Cb cap Ci fib]
+12.1 +12.0 99 +12 +12 1014.6 990.1
21 20.08 Ю 2 н/о 9/6 600 м
[Cb cap Ac trans Ci fib]
+10.3 +10.2 99 +9 +9 1014.8 990.2
00 21.08 ЮВ 3 50 км 9/8 600 м
[Cb cap Ci fib]
+9.7 +9.6 99 +7 +7 1015.2 990.5 +9.7 3
03 21.08 Ю 1 50 км 8/6 600 м
[Cb cap Ci fib]
+15.3 +13.5 89 +16 +19 1015.1 990.9
06 21.08 ЮВ 1 50 км 9/8 600 м
[Cb cap Ci fib]
+18.2 +10.3 60 +20 +22 1014.0 990.0
09 21.08 ЮВ 2 50 км {ливн. осадки} 9/8 600 м
[Cb cap Ci fib]
+17.6 +12.5 72 +18 +19 1014.3 990.3
12 21.08 ЮВ 1 50 км {ливн. осадки} 8/4 600 м
[Cb cap Ci fib]
+17.6 +12.0 70 +19 +19 1013.7 989.7 +19.4 0.4
15 21.08 ЮВ 2 н/о 8/0
[Ci fib]
+12.9 +12.4 97 +12 +12 1013.9 989.6
18 21.08 ЮВ 1 н/о в посл. час ливневой дождь 9/8 600 м
[Cb cap Ci fib]
+12.4 +12.0 97 +12 +12 1013.2 988.8
21 21.08 ЮВ 2 н/о 9/6 600 м
[Cb cap Ci fib]
+10.3 +10.1 99 +9 +9 1012.8 988.2
00 22.08 ЮВ 1 50 км 9/0
[Ac trans Ci fib]
+9.0 +8.9 99 +8 +8 1012.8 988.1 +8.8 0.0
03 22.08 ЮВ 1 50 км 6/0
[Ac trans]
+16.4 +13.0 80 +17 +22 1011.6 987.6
06 22.08 В 2 50 км 9/6 600 м
[Cu hum Ci fib]
+20.0 +10.4 54 +22 +26 комфорт 1010.1 986.3
09 22.08 В 2 50 км 9/3 600 м
[Cu hum Ac trans Ci fib]
+20.5 +10.9 54 +23 +25 комфорт 1008.9 985.3
12 22.08 СЗ 2 50 км 9/6 600 м
[Cb cap Ci fib]
+18.7 +14.8 78 +20 +20 1008.2 984.4 +21.4
15 22.08 С 2
{11}
н/о гроза без осадков {ливн. осадки} 9/8 600 м
[Cb cap Ci fib]
+13.6 +12.0 90 +13 +13 1008.0 983.9
18 22.08 СЗ 2 н/о слаб. ливневой дождь {гроза} 10/10 600 м
[Cb cap]
+13.2 +12.9 98 +12 +12 1006.9 982.7
21 22.08 С 2 н/о в посл. час ливневой дождь 9/8 600 м
[Cb cap Ci fib]
+12.8 +12.4 97 +12 +12 1004.5 980.3
00 23.08 С 2 50 км {ливн. осадки} 9/8 600 м
[Cb cap Ci fib]
+12.6 +12.5 99 +12 +12 1003.4 979.3 +12.6 13
03 23.08 С 1 20 км слаб. ливневой дождь 10/10 600 м
[Cb cap]
+13.4 +13.3 99 +13 +13 1003.0 978.9
06 23.08 С 1 20 км слаб. ливневой дождь 10/10 600 м
[Cb cap]
+14.3 +14.2 99 +15 +15 1002.9 978.9
09 23.08 З 1 20 км слаб. ливневой дождь 10/10 600 м
[Cb cap]
+14.7 +14.2 97 +15 +15 1004.1 980.1
12 23.08 З 2 20 км слаб. ливневой дождь 10/10 600 м
[Cb cap]
+14.3 +14.2 99 +14 +14 1005.6 981.3 +15.0 9
15 23.08 З 2 н/о слаб. ливневой дождь 10/10 600 м
[Cb cap]
+13.5 +13.4 99 +13 +13 1006.2 982.1
18 23.08 СЗ 3 н/о {ливн. осадки} н/о +12.6 +12.5 99 +11 +11 1006.6 982.4
21 23.08 З 2 н/о слаб. ливневой дождь 10/10 600 м
[Cb cap]
+12.8 +12.7 99 +12 +12 1007.2 983.0
00 24.08 З 4 20 км слаб. ливневой дождь 10/10 600 м
[Cb cap]
+13.3 +13.2 99 +11 +11 1007.7 983.5 +12.5 19
03 24.08 З 4 50 км в посл. час ливневой дождь 9/8 600 м
[Cb cap Ci fib]
+13.9 +13.8 99 +12 +13 1009.5 985.4
06 24.08 З 2 20 км слаб. ливневой дождь 10/10 600 м
[Cb cap]
+14.6 +14.5 99 +14 +14 1010.8 986.6
09 24.08 ЮЗ 1 50 км в посл. час ливневой дождь 9/8 600 м
[Cb cap Ci fib]
+17.2 +15.9 92 +18 +19 1010.8 986.9
12 24.08 З 2 50 км {ливн. осадки} 9/8 600 м
[Cb cap Ci fib]
+18.2 +16.0 87 +19 +19 1011.7 987.9 +19.6 9
15 24.08 ЮЗ 2 н/о 9/3 600 м
[Cb cap Ac trans Ci fib]
+15.2 +14.1 93 +15 +15 1013.3 989.1
18 24.08 Ю 2 н/о 9/3 600 м
[Cb cap Ac trans Ci fib]
+13.1 +12.4 96 +12 +12 1013.4 989.1
21 24.08 Ю 2 н/о слаб. ливневой дождь 10/10 600 м
[Cb cap]
+13.3 +13.0 98 +12 +12 1013.4 989.1
00 25.08 Ю 1 50 км в посл. час ливневой дождь 9/8 600 м
[Cb cap Ci fib]
+13.9 +13.7 99 +14 +14 1013.1 988.8 +12.3 1
03 25.08 ЮЗ 3 50 км 8/6 600 м
[Cb cap Ac trans Ci fib]
+17.3 +14.8 85 +17 +19 1012.3 988.3
06 25.08 ЮЗ 4 50 км 8/6 600 м
[Cu hum Ci fib]
+21.0 +14.7 67 +24 +27 комфорт 1011.5 987.9
09 25.08 ЮЗ 3 50 км 9/6 600 м
[Cb cap Ci fib]
+20.2 +13.9 67 +23 +24 комфорт 1012.0 988.2
12 25.08 ЮЗ 2
{12}
50 км в посл. час гроза {ливн. осадки} 8/8 600 м
[Cb cap Ci fib]
+19.7 +15.4 76 +22 +22 комфорт 1012.6 988.8 +22.5 7
15 25.08 ЮЗ 2 н/о 9/6 600 м
[Cb cap Ci fib]
+15.4 +12.7 84 +15 +15 1015.1 990.9
18 25.08 З 2 н/о 9/6 600 м
[Cb cap Ci fib]
+12.3 +11.0 92 +11 +11 1017.6 993.1
21 25.08 Ю 2 н/о 9/6 600 м
[Cb cap Ci fib]
+9.1 +9.0 99 +7 +7 1018.8 993.9
00 26.08 Ю 1 50 км 9/0
[Ci fib]
+8.2 +7.9 98 +7 +8 1019.8 994.8 +7.9
03 26.08 Ю 1 50 км 9/0
[Ci fib]
+16.1 +10.9 71 +17 +22 1019.2 995.0

 

Местоположение метеостанции Тюхтет (Красноярский край, Россия): широта 56.53 долгота 89.32 высота над уровнем моря 205 м.

В архиве по умолчанию представлена погода в Тюхтете за последнюю неделю. Архивные данные за месяц целиком и за предыдущие месяцы, начиная с января 2011 года, Вы можете получить, выбрав интересующий диапазон дат из раскрывающегося списка и нажав кнопку "Ввод!".


*Определитесь, кто Вы:
робот инопланетянин человек

Внимание! Время в таблицах - всемирное. Для получения местного времени необходимо прибавить поправку, которая равна 7 ч.

Смотрите также архив погоды в соседних городах и на ближайших метеорологических станциях:

Погода в Боготоле (Красноярский край, Россия) (37 км)
Погода в Тяжине (Кемеровская область, Россия) (67 км)
Погода в Большом Улуе (Красноярский край, Россия) (77 км)
Погода в Ачинске (Красноярский край, Россия) (79 км)
Погода в Назарово (Красноярский край, Россия) (83 км)
Погода в Новобирилюссах (Красноярский край, Россия) (95 км)
Погода в Тисуле (Кемеровская область, Россия) (107 км)
Погода в Мариинске (Кемеровская область, Россия) (108 км)
Погода в Тегульдете (Томская область, Россия) (111 км)
Погода в Шарыпово (Красноярский край, Россия) (111 км)

Пояснения к столбцам:

Ветер - указаны скорость ветра в м/с - средняя за 10 мин, порывы в срок и между сроками (в фигурных скобках) и направление, откуда дует ветер: С - северный, СВ - северо-восточный, В - восточный, ЮВ - юго-восточный, Ю - южный, ЮЗ - юго-западный, З - западный, СЗ - северо-западный.
Видимость - горизонтальная дальность видимости в метрах или километрах. При видимости от 1 до 10 км при отсутствии осадков обычно наблюдается дымка, при ухудшении видимости до 1 км и менее - туман. В сухую погоду видимость может ухудшаться дымом, пылью или мглою.
Явления - указаны атмосферные явления, наблюдавшиеся в срок или в последний час перед сроком; фигурными скобками обозначены явления, наблюдавшиеся между сроками (за 1-3 часа до срока); квадратными скобками обозначены град или гололедные отложения с указанием их диаметра в мм.
Облачность - указаны через наклонную черту общая и нижняя облачность в баллах и высота нижней границы облаков в метрах; квадратными скобками обозначены формы облаков: Ci - перистые, Cs - перисто-слоистые, Cc - перисто-кучевые, Ac - высококучевые, As - высокослоистые, Sc - слоисто-кучевые, Ns - слоисто-дождевые, Cu - кучевые, Cb - кучево-дождевые. Подробнее классификацию облаков см. в Атласе облаков (PDF).
T - Температура воздуха - температура, измеренная на высоте 2 м над землей.
Td - Температура точки росы - температура, при понижении до которой содержащийся в воздухе водяной пар достигнет насыщения.
f - Относительная влажность воздуха - влажноcть воздуха, измеренная на высоте 2 м над землей.
Te - Эффективная температура - температура, которую ощущает одетый по сезону человек в тени. Характеристика душности погоды. При расчете учитывается влияние влажности воздуха и скорости ветра на теплоощущения человека.
Tes - Эффективная температура на солнце - температура, которую ощущает человек, с поправкой на солнечный нагрев. Характеристика знойности погоды. Зависит от высоты солнца над горизонтом, облачности и скорости ветра. Ночью, в пасмурную погоду, а также при ветре 12 м/с и более поправка равна нулю.
P - Атмосферное давление - приведенное к уровню моря атмосферное давление.
Po - Атмосферное давление - измеренное на уровне метеостанции атмосферное давление.
Tmin - Минимальная температура - минимум температуры воздуха на высоте 2 м над землей.
Tmax - Максимальная температура - максимум температуры воздуха на высоте 2 м над землей.
R - Количество осадков - Количество выпавших осадков за период времени, мм. При наведении курсора мыши на число - период времени, за который выпало указанное количество осадков.
R24 - Количество осадков - Количество выпавших осадков за 24 часа, мм.
S - Снежный покров - Высота снежного покрова, см. При наведении курсора мыши на число - состояние снежного покрова и степень покрытия местности в баллах.